Time,TemperatureF,DewpointF,PressureIn,WindDirection,WindDirectionDegrees,WindSpeedMPH,WindSpeedGustMPH,Humidity,HourlyPrecipIn,Conditions,Clouds,dailyrainin,SolarRadiationWatts/m^2,SoftwareType,DateUTC
2013-08-15 00:21:00,67.0,32.0,-100.00,North,355,3.0,6.0,27,0.00,,,0.00,0.000000,,2013-08-15 06:21:00,
2013-08-15 00:31:00,67.0,32.0,-100.00,North,355,3.0,6.0,27,0.00,,,0.00,0.000000,,2013-08-15 06:31:00,
2013-08-15 00:42:00,67.0,32.0,-100.00,North,355,3.0,6.0,27,0.00,,,0.00,0.000000,,2013-08-15 06:42:00,
2013-08-15 00:52:00,67.0,32.0,-100.00,North,355,3.0,6.0,27,0.00,,,0.00,0.000000,,2013-08-15 06:52:00,
2013-08-15 01:01:00,67.0,32.0,-100.00,North,355,3.0,6.0,27,0.00,,,0.00,0.000000,,2013-08-15 07:01:00,
2013-08-15 01:02:00,67.0,31.0,-100.00,NW,310,2.0,4.0,26,0.00,,,-99.99,0.000000,,2013-08-15 07:02:00,
2013-08-15 01:42:00,67.0,31.0,-100.00,NW,310,2.0,4.0,26,0.00,,,-99.99,0.000000,,2013-08-15 07:42:00,
2013-08-15 01:52:00,67.0,31.0,-100.00,NW,310,2.0,4.0,26,0.00,,,-99.99,0.000000,,2013-08-15 07:52:00,
2013-08-15 02:42:00,67.0,30.0,-100.00,West,274,2.0,3.0,25,0.00,,,0.00,0.000000,,2013-08-15 08:42:00,
2013-08-15 02:52:00,67.0,30.0,-100.00,West,274,2.0,3.0,25,0.00,,,0.00,0.000000,,2013-08-15 08:52:00,
2013-08-15 03:01:00,67.0,30.0,-100.00,West,274,2.0,3.0,25,0.00,,,0.00,0.000000,,2013-08-15 09:01:00,
2013-08-15 03:42:00,66.0,31.0,-100.00,NW,304,2.0,4.0,27,0.00,,,0.00,0.000000,,2013-08-15 09:42:00,
2013-08-15 04:02:00,65.0,29.0,-100.00,West,277,2.0,3.0,26,0.00,,,0.00,0.000000,,2013-08-15 10:02:00,
2013-08-15 04:42:00,65.0,29.0,-100.00,West,277,2.0,3.0,26,0.00,,,0.00,0.000000,,2013-08-15 10:42:00,
2013-08-15 04:52:00,65.0,29.0,-100.00,West,277,2.0,3.0,26,0.00,,,0.00,0.000000,,2013-08-15 10:52:00,
2013-08-15 05:42:00,65.0,31.0,-100.00,NW,307,2.0,3.0,28,0.00,,,0.00,0.000000,,2013-08-15 11:42:00,
2013-08-15 05:52:00,65.0,31.0,-100.00,NW,307,2.0,3.0,28,0.00,,,0.00,0.000000,,2013-08-15 11:52:00,
2013-08-15 06:01:00,65.0,31.0,-100.00,NW,307,2.0,3.0,28,0.00,,,0.00,0.000000,,2013-08-15 12:01:00,
2013-08-15 06:42:00,64.0,29.0,-100.00,NW,323,2.0,2.0,27,0.00,,,0.00,0.000000,,2013-08-15 12:42:00,
2013-08-15 06:52:00,64.0,29.0,-100.00,NW,323,2.0,2.0,27,0.00,,,0.00,0.000000,,2013-08-15 12:52:00,
2013-08-15 07:01:00,64.0,29.0,-100.00,NW,323,2.0,2.0,27,0.00,,,0.00,0.000000,,2013-08-15 13:01:00,
2013-08-15 07:42:00,64.0,29.0,-100.00,WNW,294,1.0,4.0,27,0.00,,,0.00,8.000000,,2013-08-15 13:42:00,
2013-08-15 07:52:00,64.0,29.0,-100.00,WNW,294,1.0,4.0,27,0.00,,,0.00,8.000000,,2013-08-15 13:52:00,
2013-08-15 08:01:00,64.0,29.0,-100.00,WNW,294,1.0,4.0,27,0.00,,,0.00,8.000000,,2013-08-15 14:01:00,
2013-08-15 08:02:00,68.0,33.0,-100.00,SE,124,1.0,2.0,27,-99.99,,,0.00,78.000000,,2013-08-15 14:02:00,
2013-08-15 09:02:00,73.0,33.0,-100.00,SE,139,3.0,4.0,23,-99.99,,,0.00,296.000000,,2013-08-15 15:02:00,
2013-08-15 09:54:00,73.0,33.0,-100.00,SE,139,3.0,4.0,23,-99.99,,,0.00,296.000000,,2013-08-15 15:54:00,
2013-08-15 10:02:00,74.0,41.0,-100.00,SSE,157,3.0,6.0,30,-99.99,,,0.00,249.000000,,2013-08-15 16:02:00,
2013-08-15 10:44:00,74.0,41.0,-100.00,SSE,157,3.0,6.0,30,-99.99,,,0.00,249.000000,,2013-08-15 16:44:00,
2013-08-15 10:55:00,74.0,41.0,-100.00,SSE,157,3.0,6.0,30,-99.99,,,0.00,249.000000,,2013-08-15 16:55:00,
2013-08-15 11:02:00,78.0,38.0,-100.00,SE,141,4.0,7.0,24,0.00,,,0.00,719.000000,,2013-08-15 17:02:00,
2013-08-15 11:55:00,78.0,38.0,-100.00,SE,141,4.0,7.0,24,0.00,,,0.00,719.000000,,2013-08-15 17:55:00,
2013-08-15 12:00:00,-999.0,-99.9,-100.00,SE,141,4.0,7.0,-999,-99.99,,,-99.99,719.000000,,2013-08-15 18:00:00,
2013-08-15 12:02:00,-999.0,-99.9,-100.00,SSE,150,4.0,9.0,-999,0.00,,,0.00,862.000000,,2013-08-15 18:02:00,
2013-08-15 12:36:00,-999.0,-99.9,-100.00,SSE,150,4.0,9.0,-999,0.00,,,0.00,862.000000,,2013-08-15 18:36:00,
2013-08-15 12:49:00,81.0,36.0,-100.00,SSE,150,4.0,9.0,20,0.00,,,0.00,862.000000,,2013-08-15 18:49:00,
2013-08-15 13:02:00,-999.0,-99.9,-100.00,SSE,156,6.0,-999.0,-999,-99.99,,,-99.99,,,2013-08-15 19:02:00,
2013-08-15 13:34:00,-999.0,-99.9,-100.00,SSE,156,6.0,9.0,-999,-99.99,,,-99.99,953.000000,,2013-08-15 19:34:00,
2013-08-15 13:49:00,84.0,34.0,-100.00,SSE,156,6.0,9.0,17,0.00,,,0.00,953.000000,,2013-08-15 19:49:00,
2013-08-15 14:02:00,86.0,35.0,-100.00,SSE,154,5.0,9.0,16,0.00,,,0.00,1000.000000,,2013-08-15 20:02:00,
2013-08-15 14:45:00,86.0,35.0,-100.00,SSE,154,5.0,9.0,16,0.00,,,0.00,1000.000000,,2013-08-15 20:45:00,
2013-08-15 14:56:00,86.0,35.0,-100.00,SSE,154,5.0,9.0,16,0.00,,,0.00,1000.000000,,2013-08-15 20:56:00,
2013-08-15 15:02:00,87.0,34.0,-100.00,ESE,107,4.0,11.0,15,0.00,,,0.00,980.000000,,2013-08-15 21:02:00,
2013-08-15 15:49:00,87.0,34.0,-100.00,ESE,107,4.0,11.0,15,0.00,,,0.00,980.000000,,2013-08-15 21:49:00,
2013-08-15 15:57:00,87.0,34.0,-100.00,ESE,107,4.0,11.0,15,0.00,,,0.00,980.000000,,2013-08-15 21:57:00,
2013-08-15 16:02:00,89.0,23.0,-100.00,South,169,5.0,13.0,9,0.00,,,0.00,893.000000,,2013-08-15 22:02:00,
2013-08-15 16:29:00,89.0,23.0,-100.00,South,169,5.0,13.0,9,0.00,,,0.00,893.000000,,2013-08-15 22:29:00,
2013-08-15 16:40:00,89.0,23.0,-100.00,South,169,5.0,13.0,9,0.00,,,0.00,893.000000,,2013-08-15 22:40:00,
2013-08-15 16:49:00,89.0,23.0,-100.00,South,169,5.0,13.0,9,0.00,,,0.00,893.000000,,2013-08-15 22:49:00,
2013-08-15 16:58:00,89.0,23.0,-100.00,South,169,5.0,13.0,9,0.00,,,0.00,893.000000,,2013-08-15 22:58:00,
2013-08-15 17:02:00,87.0,21.0,-100.00,WSW,238,6.0,15.0,9,0.00,,,0.00,635.000000,,2013-08-15 23:02:00,
2013-08-15 17:35:00,-999.0,-99.9,-100.00,WSW,238,6.0,15.0,9,0.00,,,0.00,635.000000,,2013-08-15 23:35:00,
2013-08-15 17:48:00,87.0,21.0,-100.00,WSW,238,6.0,15.0,9,0.00,,,0.00,635.000000,,2013-08-15 23:48:00,
2013-08-15 17:55:00,87.0,21.0,-100.00,WSW,238,6.0,15.0,9,0.00,,,0.00,635.000000,,2013-08-15 23:55:00,
2013-08-15 18:46:00,85.0,27.0,-100.00,WSW,237,4.0,13.0,12,0.00,,,0.00,155.000000,,2013-08-16 00:46:00,
2013-08-15 18:52:00,85.0,27.0,-100.00,WSW,237,4.0,13.0,12,0.00,,,0.00,155.000000,,2013-08-16 00:52:00,
2013-08-15 19:01:00,85.0,27.0,-100.00,WSW,237,4.0,13.0,12,0.00,,,0.00,155.000000,,2013-08-16 01:01:00,
2013-08-15 19:02:00,81.0,29.0,-100.00,NNW,329,4.0,9.0,15,0.00,,,0.00,186.000000,,2013-08-16 01:02:00,
2013-08-15 19:43:00,-999.0,-99.9,-100.00,NNW,329,4.0,-999.0,-999,-99.99,,,-99.99,,,2013-08-16 01:43:00,
2013-08-15 19:54:00,81.0,29.0,-100.00,NNW,329,4.0,9.0,15,0.00,,,0.00,186.000000,,2013-08-16 01:54:00,
2013-08-15 20:02:00,77.0,30.0,-100.00,NNW,333,6.0,12.0,18,0.00,,,0.00,60.000000,,2013-08-16 02:02:00,
2013-08-15 20:44:00,77.0,30.0,-100.00,NNW,333,6.0,12.0,18,0.00,,,0.00,60.000000,,2013-08-16 02:44:00,
2013-08-15 20:52:00,77.0,30.0,-100.00,NNW,333,6.0,12.0,18,0.00,,,0.00,60.000000,,2013-08-16 02:52:00,
2013-08-15 21:02:00,74.0,29.0,-100.00,NNW,333,4.0,10.0,19,0.00,,,0.00,15.000000,,2013-08-16 03:02:00,
2013-08-15 21:43:00,74.0,29.0,-100.00,NNW,333,4.0,10.0,19,0.00,,,0.00,15.000000,,2013-08-16 03:43:00,
2013-08-15 21:53:00,74.0,29.0,-100.00,NNW,333,4.0,10.0,19,0.00,,,0.00,15.000000,,2013-08-16 03:53:00,
2013-08-15 22:02:00,73.0,27.0,-100.00,NW,320,2.0,6.0,18,0.00,,,0.00,0.000000,,2013-08-16 04:02:00,
2013-08-15 22:42:00,73.0,27.0,-100.00,NW,320,2.0,6.0,18,0.00,,,0.00,0.000000,,2013-08-16 04:42:00,
2013-08-15 22:53:00,73.0,27.0,-100.00,NW,320,2.0,6.0,18,0.00,,,0.00,0.000000,,2013-08-16 04:53:00,
2013-08-15 23:22:00,73.0,27.0,-100.00,WNW,297,3.0,4.0,18,-99.99,,,0.00,0.000000,,2013-08-16 05:22:00,
2013-08-15 23:32:00,73.0,27.0,-100.00,WNW,297,3.0,4.0,18,-99.99,,,0.00,0.000000,,2013-08-16 05:32:00,
2013-08-15 23:42:00,73.0,27.0,-100.00,WNW,297,3.0,4.0,18,-99.99,,,0.00,0.000000,,2013-08-16 05:42:00,